TimeMST,TemperatureF,Dew PointF,Humidity,Sea Level PressureIn,VisibilityMPH,Wind Direction,Wind SpeedMPH,Gust SpeedMPH,PrecipitationIn,Events,Conditions,WindDirDegrees,DateUTC
12:55 AM,52.0,39.9,63,30.12,10.0,NE,3.5,-,N/A,,Clear,50,2013-02-01 07:55:00
1:55 AM,51.1,37.9,61,30.13,10.0,NNE,3.5,-,N/A,,Clear,20,2013-02-01 08:55:00
2:55 AM,51.1,39.0,63,30.13,10.0,NE,3.5,-,N/A,,Clear,50,2013-02-01 09:55:00
3:55 AM,52.0,37.9,59,30.13,10.0,NNE,4.6,-,N/A,,Clear,30,2013-02-01 10:55:00
4:55 AM,48.9,39.0,69,30.13,10.0,Calm,Calm,-,N/A,,Clear,0,2013-02-01 11:55:00
5:55 AM,48.9,37.9,66,30.14,10.0,ENE,3.5,-,N/A,,Clear,60,2013-02-01 12:55:00
6:55 AM,48.0,37.9,68,30.15,10.0,NNE,3.5,-,N/A,,Clear,30,2013-02-01 13:55:00
7:55 AM,48.9,37.9,66,30.15,10.0,NNE,8.1,-,N/A,,Partly Cloudy,30,2013-02-01 14:55:00
8:55 AM,54.0,37.9,55,30.17,10.0,NNE,9.2,-,N/A,,Partly Cloudy,30,2013-02-01 15:55:00
9:55 AM,57.0,39.0,51,30.17,10.0,NE,10.4,-,N/A,,Partly Cloudy,40,2013-02-01 16:55:00
10:55 AM,62.1,37.9,41,30.19,10.0,NE,8.1,-,N/A,,Partly Cloudy,40,2013-02-01 17:55:00
11:55 AM,66.0,36.0,33,30.19,10.0,NE,9.2,-,N/A,,Scattered Clouds,50,2013-02-01 18:55:00
12:55 PM,71.1,37.0,29,30.17,10.0,NNE,8.1,-,N/A,,Mostly Cloudy,30,2013-02-01 19:55:00
1:55 PM,73.0,34.0,24,30.14,10.0,NNE,9.2,-,N/A,,Mostly Cloudy,20,2013-02-01 20:55:00
2:55 PM,73.9,33.1,22,30.13,10.0,NE,5.8,-,N/A,,Mostly Cloudy,50,2013-02-01 21:55:00
3:55 PM,73.9,34.0,23,30.12,10.0,NE,4.6,-,N/A,,Mostly Cloudy,40,2013-02-01 22:55:00
4:55 PM,73.9,33.1,22,30.11,10.0,NNE,4.6,-,N/A,,Mostly Cloudy,30,2013-02-01 23:55:00
5:55 PM,72.0,30.9,22,30.11,10.0,NNE,3.5,-,N/A,,Mostly Cloudy,20,2013-02-02 00:55:00
6:55 PM,64.9,37.9,37,30.13,10.0,North,3.5,-,N/A,,Mostly Cloudy,350,2013-02-02 01:55:00
7:55 PM,62.1,37.9,41,30.15,10.0,West,4.6,-,N/A,,Mostly Cloudy,280,2013-02-02 02:55:00
8:55 PM,63.0,36.0,37,30.15,10.0,North,5.8,-,N/A,,Mostly Cloudy,360,2013-02-02 03:55:00
9:55 PM,61.0,37.9,42,30.17,10.0,Calm,Calm,-,N/A,,Mostly Cloudy,0,2013-02-02 04:55:00
10:55 PM,59.0,37.9,46,30.18,10.0,Calm,Calm,-,N/A,,Mostly Cloudy,0,2013-02-02 05:55:00
11:55 PM,57.0,39.9,53,30.18,10.0,Calm,Calm,-,N/A,,Mostly Cloudy,0,2013-02-02 06:55:00